Great Bend, KS

3:40 PM CST on January 19, 2017 (GMT -0600)
Great Bend Municipal

Weather History for KGBD - May, 2014

Change the Weather History Date:

Tuesday, May 13, 2014

  Actual Average Record
Temperature  
Mean Temperature 50 °F -  
Max Temperature 62 °F 77 °F 94 °F (1988)
Min Temperature 37 °F 51 °F 31 °F (1953)
Degree Days  
Heating Degree Days 16    
Moisture  
Dew Point 31 °F    
Average Humidity 52    
Maximum Humidity 81    
Minimum Humidity 27    
Precipitation  
Precipitation 0.00 in - - ()
Sea Level Pressure  
Sea Level Pressure 30.27 in    
Wind  
Wind Speed 11 mph (NNW)    
Max Wind Speed 23 mph    
Max Gust Speed 31 mph    
Visibility 10 miles    
Events      
Averages and records for this station are not official NWS values.
T = Trace of Precipitation, MM = Missing Value Source: NWS Daily Summary

Daily Weather History Graph

Daily Weather History Graph

Search for Another Location

Airport or City:

Trip Planner

Search our weather history database for the weather conditions in past years. The results will help you decide how hot, cold, wet, or windy it might be!

Date:

Astronomy

May. 13, 2014 Rise Set
Actual Time 6:26 AM CDT 8:38 PM CDT
Civil Twilight 5:56 AM CDT 9:07 PM CDT
Nautical Twilight 5:20 AM CDT 9:44 PM CDT
Astronomical Twilight 4:40 AM CDT 10:23 PM CDT
Moon 7:42 PM CDT (5/13) 5:42 AM CDT (5/13)
Length of Visible Light 15h 11m
Length of Day
14h 12m
Waxing Gibbous, 99% of the Moon is Illuminated
May 13
Waxing Gibbous
May 14
Full
May 21
Last Quarter
May 28
New
Jun 5
First Quarter

Hourly Weather History & Observations

Time (CDT) Temp. Windchill Dew Point Humidity Pressure Visibility Wind Dir Wind Speed Gust Speed Precip Events Conditions
12:15 AM 41.0 °F 35.8 °F 33.8 °F 76% 30.21 in 10.0 mi NW 8.1 mph - N/A   Clear
12:35 AM 39.2 °F 34.2 °F 33.8 °F 81% 30.22 in 10.0 mi WNW 6.9 mph - N/A   Clear
1:15 AM 39.2 °F 33.6 °F 33.8 °F 81% 30.23 in 10.0 mi NW 8.1 mph - N/A   Partly Cloudy
1:35 AM 41.0 °F 36.4 °F 33.8 °F 76% 30.23 in 10.0 mi NW 6.9 mph - N/A   Mostly Cloudy
1:55 AM 41.0 °F 37.1 °F 33.8 °F 76% 30.24 in 10.0 mi NW 5.8 mph - N/A   Overcast
2:35 AM 39.2 °F 34.2 °F 33.8 °F 81% 30.24 in 10.0 mi NW 6.9 mph - N/A   Partly Cloudy
2:55 AM 39.2 °F 34.2 °F 33.8 °F 81% 30.24 in 10.0 mi NW 6.9 mph - N/A   Clear
3:15 AM 39.2 °F 32.5 °F 32.0 °F 75% 30.23 in 10.0 mi NW 10.4 mph - N/A   Clear
3:35 AM 39.2 °F 32.5 °F 32.0 °F 75% 30.24 in 10.0 mi NW 10.4 mph - N/A   Clear
3:55 AM 39.2 °F 32.0 °F 32.0 °F 75% 30.23 in 10.0 mi NW 11.5 mph - N/A   Clear
4:15 AM 39.2 °F 31.6 °F 30.2 °F 70% 30.22 in 10.0 mi NNW 12.7 mph - N/A   Clear
4:35 AM 39.2 °F 31.2 °F 30.2 °F 70% 30.22 in 10.0 mi NNW 13.8 mph - N/A   Clear
4:55 AM 39.2 °F 31.6 °F 30.2 °F 70% 30.22 in 10.0 mi NNW 12.7 mph - N/A   Clear
5:15 AM 39.2 °F 31.6 °F 30.2 °F 70% 30.22 in 10.0 mi NW 12.7 mph - N/A   Clear
5:35 AM 39.2 °F 32.5 °F 30.2 °F 70% 30.23 in 10.0 mi NW 10.4 mph - N/A   Clear
5:55 AM 39.2 °F 32.0 °F 28.4 °F 65% 30.22 in 10.0 mi NW 11.5 mph - N/A   Clear
6:15 AM 37.4 °F 29.3 °F 28.4 °F 70% 30.22 in 10.0 mi NW 12.7 mph - N/A   Clear
6:35 AM 37.4 °F 29.8 °F 28.4 °F 70% 30.23 in 10.0 mi NW 11.5 mph - N/A   Clear
6:55 AM 37.4 °F 29.3 °F 30.2 °F 75% 30.24 in 10.0 mi NW 12.7 mph - N/A   Clear
7:15 AM 39.2 °F 31.6 °F 30.2 °F 70% 30.25 in 10.0 mi NW 12.7 mph - N/A   Clear
8:15 AM 44.6 °F 37.4 °F 32.0 °F 61% 30.28 in 10.0 mi NNW 16.1 mph 20.7 mph N/A   Clear
8:35 AM 46.4 °F 39.2 °F 32.0 °F 57% 30.28 in 10.0 mi NNW 18.4 mph - N/A   Clear
8:55 AM 46.4 °F 39.0 °F 33.8 °F 62% 30.29 in 10.0 mi NNW 19.6 mph - N/A   Clear
9:15 AM 48.2 °F - 33.8 °F 58% 30.30 in 10.0 mi NNW 18.4 mph 24.2 mph N/A   Clear
9:55 AM 51.8 °F - 33.8 °F 50% 30.30 in 10.0 mi NNW 18.4 mph 25.3 mph N/A   Clear
11:35 AM 55.4 °F - 30.2 °F 38% 30.31 in 10.0 mi NNE 23.0 mph 29.9 mph N/A   Clear
11:55 AM 57.2 °F - 30.2 °F 36% 30.32 in 10.0 mi North 20.7 mph 31.1 mph N/A   Clear
12:35 PM 57.2 °F - 28.4 °F 33% 30.33 in 10.0 mi North 19.6 mph 27.6 mph N/A   Clear
12:55 PM 57.2 °F - 28.4 °F 33% 30.33 in 10.0 mi North 17.3 mph 27.6 mph N/A   Scattered Clouds
1:15 PM 59.0 °F - 28.4 °F 31% 30.32 in 10.0 mi North 18.4 mph 24.2 mph N/A   Mostly Cloudy
1:35 PM 59.0 °F - 28.4 °F 31% 30.31 in 10.0 mi North 18.4 mph 26.5 mph N/A   Mostly Cloudy
1:55 PM 59.0 °F - 28.4 °F 31% 30.31 in 10.0 mi North 16.1 mph 23.0 mph N/A   Mostly Cloudy
2:15 PM 60.8 °F - 28.4 °F 29% 30.30 in 10.0 mi North 20.7 mph 25.3 mph N/A   Mostly Cloudy
2:35 PM 60.8 °F - 28.4 °F 29% 30.30 in 10.0 mi NNW 20.7 mph 27.6 mph N/A   Scattered Clouds
2:55 PM 60.8 °F - 28.4 °F 29% 30.30 in 10.0 mi North 18.4 mph 28.8 mph N/A   Mostly Cloudy
3:15 PM 60.8 °F - 28.4 °F 29% 30.30 in 10.0 mi North 17.3 mph 24.2 mph N/A   Mostly Cloudy
3:35 PM 60.8 °F - 30.2 °F 31% 30.29 in 10.0 mi NNW 16.1 mph 24.2 mph N/A   Mostly Cloudy
3:55 PM 60.8 °F - 28.4 °F 29% 30.28 in 10.0 mi North 19.6 mph - N/A   Mostly Cloudy
4:15 PM 60.8 °F - 28.4 °F 29% 30.27 in 10.0 mi NNW 16.1 mph 23.0 mph N/A   Scattered Clouds
4:35 PM 60.8 °F - 28.4 °F 29% 30.27 in 10.0 mi NNW 12.7 mph - N/A   Scattered Clouds
4:55 PM 60.8 °F - 30.2 °F 31% 30.27 in 10.0 mi NNW 11.5 mph - N/A   Mostly Cloudy
5:15 PM 60.8 °F - 28.4 °F 29% 30.27 in 10.0 mi North 11.5 mph - N/A   Overcast
5:35 PM 60.8 °F - 28.4 °F 29% 30.26 in 10.0 mi North 11.5 mph - N/A   Scattered Clouds
5:55 PM 62.6 °F - 28.4 °F 27% 30.25 in 10.0 mi North 17.3 mph 20.7 mph N/A   Partly Cloudy
6:15 PM 62.6 °F - 28.4 °F 27% 30.25 in 10.0 mi North 16.1 mph 19.6 mph N/A   Mostly Cloudy
6:35 PM 60.8 °F - 26.6 °F 27% 30.24 in 10.0 mi NNW 13.8 mph - N/A   Mostly Cloudy
6:55 PM 59.0 °F - 26.6 °F 29% 30.24 in 10.0 mi North 12.7 mph 18.4 mph N/A   Partly Cloudy
7:15 PM 60.8 °F - 28.4 °F 29% 30.25 in 10.0 mi NNW 15.0 mph 21.9 mph N/A   Mostly Cloudy
7:35 PM 59.0 °F - 28.4 °F 31% 30.26 in 10.0 mi North 12.7 mph - N/A   Scattered Clouds
7:55 PM 57.2 °F - 28.4 °F 33% 30.27 in 10.0 mi North 8.1 mph - N/A   Clear
8:15 PM 55.4 °F - 30.2 °F 38% 30.28 in 10.0 mi North 6.9 mph - N/A   Clear
8:35 PM 53.6 °F - 30.2 °F 41% 30.28 in 10.0 mi North 4.6 mph - N/A   Clear
8:55 PM 53.6 °F - 32.0 °F 44% 30.29 in 10.0 mi North 4.6 mph - N/A   Clear
9:15 PM 53.6 °F - 33.8 °F 47% 30.29 in 10.0 mi North 4.6 mph - N/A   Clear
9:55 PM 51.8 °F - 37.4 °F 58% 30.30 in 10.0 mi North 3.5 mph - N/A   Clear
10:15 PM 51.8 °F - 33.8 °F 50% 30.30 in 10.0 mi Calm Calm - N/A   Clear
10:35 PM 46.4 °F 45.2 °F 37.4 °F 71% 30.31 in 10.0 mi NW 3.5 mph - N/A   Clear
10:55 PM 46.4 °F 43.5 °F 35.6 °F 66% 30.31 in 10.0 mi WNW 5.8 mph - N/A   Clear
11:15 PM 44.6 °F 41.4 °F 35.6 °F 71% 30.31 in 10.0 mi WNW 5.8 mph - N/A   Clear
11:35 PM 44.6 °F 42.2 °F 35.6 °F 71% 30.32 in 10.0 mi WNW 4.6 mph - N/A   Clear
11:55 PM 42.8 °F 41.1 °F 35.6 °F 76% 30.31 in 10.0 mi WNW 3.5 mph - N/A   Clear